FW8346 Weather Reports


Display with metric or nautical units.
time (UTC)temp
F
wind
direction
speed
MPH
gust
MPH
rain 1hr
in
rain 24hr
in
rain mn
in
humidity
%
barometer
mb
20260509065319 53 301 4.0 10.0 0.00 0.00 0.00 54 1002.5
20260509064817 52 291 3.0 10.0 0.00 0.00 0.00 55 1002.7
20260509064319 52 331 1.0 8.0 0.00 0.00 0.00 52 1002.6
20260509063814 51 298 1.0 3.0 0.00 0.00 0.00 52 1002.8
20260509063315 51 317 1.0 6.0 0.00 0.00 0.00 51 1002.6
20260509062813 51 330 1.0 6.0 0.00 0.00 0.00 52 1002.8
20260509062313 50 347 0.0 4.0 0.00 0.00 0.00 52 1002.9
20260509061818 50 323 0.0 1.0 0.00 0.00 0.00 54 1002.3
20260509061814 50 294 0.0 1.0 0.00 0.00 0.00 53 1002.5
20260509060813 49 325 0.0 1.0 0.00 0.00 0.00 59 1002.4
20260509060313 49 290 0.0 0.0 0.00 0.00 0.00 63 1002.1
20260509055815 49 167 0.0 0.0 0.00 0.00 0.00 67 1001.9
20260509055310 49 226 0.0 0.0 0.00 0.00 0.00 60 1001.9
20260509054812 49 226 0.0 0.0 0.00 0.00 0.00 55 1002.0
20260509054540 49 226 0.0 0.0 0.00 0.00 0.00 54 1002.0
20260509054041 49 226 0.0 0.0 0.00 0.00 0.00 53 1002.0
20260509053309 49 226 0.0 0.0 0.00 0.00 0.00 53 1002.0
20260509052811 48 226 0.0 0.0 0.00 0.00 0.00 53 1001.9
20260509052311 48 226 0.0 0.0 0.00 0.00 0.00 52 1002.0
20260509051811 48 226 0.0 0.0 0.00 0.00 0.00 53 1001.7
20260509051311 48 226 0.0 0.0 0.00 0.00 0.00 52 1001.8
20260509050810 48 226 0.0 0.0 0.00 0.00 0.00 52 1001.8
20260509050310 48 226 0.0 0.0 0.00 0.00 0.00 52 1001.8
20260509045809 48 226 0.0 1.0 0.00 0.00 0.00 51 1001.7
20260509045311 48 226 0.0 1.0 0.00 0.00 0.00 51 1001.7
20260509044810 48 226 0.0 1.0 0.00 0.00 0.00 49 1001.7
20260509044310 49 221 0.0 0.0 0.00 0.00 0.00 49 1001.8
20260509043809 49 227 0.0 0.0 0.00 0.00 0.00 50 1001.9
20260509043310 49 226 0.0 0.0 0.00 0.00 0.00 49 1001.9
20260509042809 49 226 0.0 0.0 0.00 0.00 0.00 47 1001.9
20260509042311 50 223 0.0 0.0 0.00 0.00 0.00 46 1001.8
20260509041807 50 226 0.0 0.0 0.00 0.00 0.00 45 1002.0
20260509041307 50 226 0.0 0.0 0.00 0.00 0.00 44 1002.2
20260509041041 51 227 0.0 1.0 0.00 0.00 0.00 44 1002.1
20260509040536 51 236 0.0 1.0 0.00 0.00 0.00 42 1002.2
20260509035807 52 240 0.0 0.0 0.00 0.00 0.00 41 1002.2
20260509035306 53 240 0.0 0.0 0.00 0.00 0.00 40 1002.2
20260509034804 53 240 0.0 0.0 0.00 0.00 0.00 40 1002.3
20260509034301 53 240 0.0 0.0 0.00 0.00 0.00 39 1002.2
20260509034034 54 240 0.0 0.0 0.00 0.00 0.00 38 1002.2
20260509033301 54 240 0.0 2.0 0.00 0.00 0.00 38 1002.3
20260509032803 55 332 1.0 5.0 0.00 0.00 0.00 38 1002.3
20260509032534 55 325 2.0 5.0 0.00 0.00 0.00 38 1002.5
20260509032258 55 330 1.0 5.0 0.00 0.00 0.00 38 1002.5
20260509031250 55 347 0.0 4.0 0.00 0.00 0.00 38 1002.5
20260509030744 55 329 0.0 1.0 0.00 0.00 0.00 38 1002.3
20260509030238 56 333 0.0 3.0 0.00 0.00 0.00 38 1002.2
20260509025732 56 291 1.0 3.0 0.00 0.00 0.00 38 1002.2
20260509025226 56 341 1.0 5.0 0.00 0.00 0.00 37 1002.2
20260509024720 57 331 2.0 8.0 0.00 0.00 0.00 37 1002.1
20260509024214 57 326 2.0 9.0 0.00 0.00 0.00 36 1002.1
20260509023939 57 13 2.0 9.0 0.00 0.00 0.00 37 1002.1
20260509023430 57 307 1.0 6.0 0.00 0.00 0.00 36 1002.0
20260509023304 57 311 2.0 6.0 0.00 0.00 0.00 36 1002.1
20260509022150 57 349 1.0 6.0 0.00 0.00 0.00 36 1001.9
20260509021643 58 8 1.0 8.0 0.00 0.00 0.00 35 1001.8
20260509021406 58 335 3.0 9.0 0.00 0.00 0.00 35 1001.8
20260509020901 58 326 2.0 9.0 0.00 0.00 0.00 35 1001.7
20260509020123 58 330 2.0 10.0 0.00 0.00 0.00 35 1001.6
20260509015618 59 338 3.0 10.0 0.00 0.00 0.00 35 1001.5
20260509015112 59 341 3.0 8.0 0.00 0.00 0.00 34 1001.5
20260509014836 59 300 2.0 7.0 0.00 0.00 0.00 34 1001.4
20260509014100 60 278 2.0 6.0 0.00 0.00 0.00 34 1001.4
20260509013554 60 0 3.0 12.0 0.00 0.00 0.00 34 1001.3
20260509013048 60 315 4.0 12.0 0.00 0.00 0.00 33 1001.2
20260509012541 61 18 4.0 9.0 0.00 0.00 0.00 33 1001.2
20260509012035 61 297 4.0 14.0 0.00 0.00 0.00 33 1001.1
20260509011803 61 320 4.0 14.0 0.00 0.00 0.00 34 1001.1
20260509011024 62 328 5.0 12.0 0.00 0.00 0.00 35 1001.0
20260509010518 62 290 5.0 14.0 0.00 0.00 0.00 34 1000.9
20260509010242 63 325 4.0 14.0 0.00 0.00 0.00 34 1000.9
20260509005506 63 311 5.0 14.0 0.00 0.00 0.00 33 1000.8
20260509005000 64 282 4.0 14.0 0.00 0.00 0.00 33 1000.7
20260509004454 64 305 3.0 13.0 0.00 0.00 0.00 31 1000.6
20260509003948 64 302 3.0 9.0 0.00 0.00 0.00 30 1000.4
20260509003442 65 14 3.0 12.0 0.00 0.00 0.00 29 1000.4
20260509003206 65 342 2.0 12.0 0.00 0.00 0.00 28 1000.3
20260509002430 65 329 2.0 7.0 0.00 0.00 0.00 27 1000.3
20260509001923 65 338 2.0 7.0 0.00 0.00 0.00 27 1000.3
20260509001418 65 339 3.0 8.0 0.00 0.00 0.00 26 1000.3
20260509000912 65 348 3.0 8.0 0.00 0.00 0.00 26 1000.3
20260509000406 65 333 2.0 7.0 0.00 0.00 0.00 26 1000.4
20260508235900 65 13 2.0 8.0 0.00 0.00 0.00 26 1000.3
20260508235354 65 253 2.0 8.0 0.00 0.00 0.00 26 1000.3
20260508234847 65 294 2.0 6.0 0.00 0.00 0.00 25 1000.3
20260508234341 65 330 2.0 8.0 0.00 0.00 0.00 25 1000.4
20260508233837 65 297 1.0 8.0 0.00 0.00 0.00 27 1000.4
20260508233330 65 271 1.0 6.0 0.00 0.00 0.00 26 1000.4
20260508232823 65 331 1.0 6.0 0.00 0.00 0.00 28 1000.4
20260508232318 66 341 1.0 5.0 0.00 0.00 0.00 27 1000.6
20260508231812 65 301 2.0 5.0 0.00 0.00 0.00 27 1000.7
20260508231307 66 286 2.0 5.0 0.00 0.00 0.00 26 1000.7
20260508230800 66 318 4.0 11.0 0.00 0.00 0.00 26 1000.8
20260508230254 66 307 5.0 17.0 0.00 0.00 0.00 27 1000.8
20260508225748 66 299 3.0 17.0 0.00 0.00 0.00 27 1000.8
20260508225242 66 342 2.0 6.0 0.00 0.00 0.00 26 1000.8
20260508224735 66 304 1.0 6.0 0.00 0.00 0.00 27 1000.9
20260508224502 66 335 2.0 6.0 0.00 0.00 0.00 26 1000.8
20260508223724 66 303 2.0 6.0 0.00 0.00 0.00 26 1000.9
20260508223218 66 320 3.0 13.0 0.00 0.00 0.00 25 1001.0
20260508222712 66 307 4.0 13.0 0.00 0.00 0.00 26 1001.0
20260508222206 66 353 5.0 14.0 0.00 0.00 0.00 25 1001.0
20260508221659 66 351 7.0 15.0 0.00 0.00 0.00 27 1001.1
20260508221425 66 288 5.0 15.0 0.00 0.00 0.00 28 1001.1
20260508220919 66 307 2.0 8.0 0.00 0.00 0.00 26 1001.1
20260508220410 67 278 2.0 7.0 0.00 0.00 0.00 25 1001.2
20260508220244 66 32 2.0 8.0 0.00 0.00 0.00 26 1001.1
20260508215130 67 283 2.0 7.0 0.00 0.00 0.00 25 1001.2
20260508214856 67 63 2.0 7.0 0.00 0.00 0.00 26 1001.3
20260508214118 67 314 2.0 9.0 0.00 0.00 0.00 25 1001.3
20260508213612 67 304 2.0 9.0 0.00 0.00 0.00 25 1001.3
20260508213106 67 41 2.0 10.0 0.00 0.00 0.00 27 1001.5
20260508212601 68 219 2.0 10.0 0.00 0.00 0.00 27 1001.5
20260508212325 67 314 2.0 11.0 0.00 0.00 0.00 26 1001.5
20260508211553 66 323 2.0 11.0 0.00 0.00 0.00 27 1001.6
20260508211053 66 299 2.0 6.0 0.00 0.00 0.00 27 1001.7
20260508210556 65 255 1.0 6.0 0.00 0.00 0.00 27 1001.8
20260508210053 65 305 2.0 7.0 0.00 0.00 0.00 27 1001.9
20260508205554 65 213 2.0 7.0 0.00 0.00 0.00 25 1002.0
20260508205051 65 271 1.0 6.0 0.00 0.00 0.00 27 1002.1
20260508204551 66 319 1.0 8.0 0.00 0.00 0.00 26 1002.2
20260508204052 65 27 2.0 9.0 0.00 0.00 0.00 27 1002.3
20260508203549 66 316 3.0 9.0 0.00 0.00 0.00 28 1002.3
20260508203047 65 293 2.0 6.0 0.00 0.00 0.00 27 1002.5
20260508202546 66 236 1.0 6.0 0.00 0.00 0.00 26 1002.5
20260508202317 66 211 1.0 4.0 0.00 0.00 0.00 26 1002.5
20260508201547 66 338 2.0 7.0 0.00 0.00 0.00 26 1002.6
20260508201315 65 350 2.0 7.0 0.00 0.00 0.00 29 1002.8
20260508200546 65 226 3.0 10.0 0.00 0.00 0.00 26 1002.8
20260508200045 66 263 3.0 10.0 0.00 0.00 0.00 25 1002.9
20260508195544 66 258 2.0 10.0 0.00 0.00 0.00 29 1002.9
20260508195043 65 345 1.0 5.0 0.00 0.00 0.00 30 1002.9
20260508194541 64 217 1.0 7.0 0.00 0.00 0.00 27 1003.0
20260508194042 64 271 1.0 7.0 0.00 0.00 0.00 26 1003.1
20260508193541 64 266 1.0 10.0 0.00 0.00 0.00 26 1003.2
20260508193042 63 331 2.0 10.0 0.00 0.00 0.00 26 1003.4
20260508192542 63 322 2.0 9.0 0.00 0.00 0.00 27 1003.4
20260508192041 63 298 2.0 5.0 0.00 0.00 0.00 32 1003.5
20260508191542 63 329 4.0 11.0 0.00 0.00 0.00 26 1003.5
20260508191320 62 346 7.0 14.0 0.00 0.00 0.00 30 1003.5
20260508191042 62 151 6.0 12.0 0.00 0.00 0.00 29 1003.5
20260508190309 62 336 6.0 14.0 0.00 0.00 0.00 30 1003.7
20260508185538 62 347 5.0 11.0 0.00 0.00 0.00 28 1003.7
20260508185038 64 32 4.0 11.0 0.00 0.00 0.00 30 1003.8
20260508184537 65 347 3.0 10.0 0.00 0.00 0.00 26 1003.9
20260508184036 65 299 2.0 10.0 0.00 0.00 0.00 26 1003.9
20260508183537 64 328 1.0 4.0 0.00 0.00 0.00 26 1003.9
20260508183307 64 248 1.0 4.0 0.00 0.00 0.00 27 1003.9
20260508182537 63 239 1.0 6.0 0.00 0.00 0.00 26 1004.0
20260508182309 63 0 2.0 6.0 0.00 0.00 0.00 25 1004.1
20260508181804 62 334 3.0 13.0 0.00 0.00 0.00 28 1004.1
20260508181032 62 321 5.0 15.0 0.00 0.00 0.00 26 1004.3
20260508180532 62 310 6.0 15.0 0.00 0.00 0.00 31 1004.3
20260508180032 63 37 6.0 12.0 0.00 0.00 0.00 26 1004.4
20260508175533 63 6 4.0 12.0 0.00 0.00 0.00 28 1004.4
20260508175033 62 338 4.0 13.0 0.00 0.00 0.00 24 1004.5
20260508174533 62 274 5.0 13.0 0.00 0.00 0.00 26 1004.6
20260508174032 61 305 5.0 10.0 0.00 0.00 0.00 25 1004.7
20260508173533 61 295 5.0 10.0 0.00 0.00 0.00 31 1004.7
20260508173301 62 337 6.0 12.0 0.00 0.00 0.00 23 1004.7
20260508172529 63 344 6.0 14.0 0.00 0.00 0.00 25 1004.8
20260508172028 63 332 5.0 14.0 0.00 0.00 0.00 24 1004.9
20260508171530 63 335 3.0 8.0 0.00 0.00 0.00 27 1005.0
20260508171029 63 340 2.0 12.0 0.00 0.00 0.00 25 1005.2
20260508170802 62 5 3.0 12.0 0.00 0.00 0.00 27 1005.2
20260508170029 62 280 3.0 8.0 0.00 0.00 0.00 27 1005.2
20260508165528 60 19 2.0 6.0 0.00 0.00 0.00 35 1005.2
20260508165030 61 54 1.0 3.0 0.00 0.00 0.00 34 1005.3
20260508164755 60 36 3.0 8.0 0.00 0.00 0.00 31 1005.3
20260508164017 60 52 4.0 8.0 0.00 0.00 0.00 30 1005.4
20260508163511 61 135 2.0 6.0 0.00 0.00 0.00 30 1005.3
20260508163005 62 53 3.0 10.0 0.00 0.00 0.00 35 1005.5
20260508162459 61 195 3.0 10.0 0.00 0.00 0.00 34 1005.5
20260508161953 61 171 2.0 7.0 0.00 0.00 0.00 31 1005.5
20260508161447 60 227 2.0 5.0 0.00 0.00 0.00 32 1005.6
20260508160941 59 248 2.0 5.0 0.00 0.00 0.00 39 1005.6
20260508160435 59 49 1.0 5.0 0.00 0.00 0.00 34 1005.6
20260508155935 58 56 2.0 6.0 0.00 0.00 0.00 32 1005.7
20260508155435 58 109 3.0 6.0 0.00 0.00 0.00 33 1005.7
20260508155205 58 70 2.0 4.0 0.00 0.00 0.00 32 1005.7
20260508154434 58 120 0.0 2.0 0.00 0.00 0.00 34 1005.9
20260508153934 57 102 0.0 1.0 0.00 0.00 0.00 41 1005.9
20260508153432 56 63 0.0 1.0 0.00 0.00 0.00 42 1006.0
20260508152935 56 54 1.0 2.0 0.00 0.00 0.00 46 1006.0
20260508152433 55 51 2.0 3.0 0.00 0.00 0.00 50 1006.0
20260508152203 56 63 2.0 3.0 0.00 0.00 0.00 43 1006.0
20260508151430 57 91 1.0 3.0 0.00 0.00 0.00 42 1006.1
20260508150930 57 108 1.0 3.0 0.00 0.00 0.00 40 1006.2
20260508150428 56 349 0.0 3.0 0.00 0.00 0.00 42 1006.2
20260508145928 55 323 1.0 5.0 0.00 0.00 0.00 42 1006.3
20260508145429 55 308 1.0 5.0 0.00 0.00 0.00 42 1006.3
20260508144926 55 314 0.0 2.0 0.00 0.00 0.00 43 1006.3
20260508144428 55 285 0.0 2.0 0.00 0.00 0.00 45 1006.4
20260508143925 54 228 1.0 3.0 0.00 0.00 0.00 43 1006.4
20260508143428 54 291 1.0 4.0 0.00 0.00 0.00 46 1006.5
20260508142922 54 273 1.0 4.0 0.00 0.00 0.00 46 1006.6
20260508142417 53 311 1.0 4.0 0.00 0.00 0.00 47 1006.6
20260508141910 52 220 1.0 4.0 0.00 0.00 0.00 47 1006.6
20260508141404 52 295 1.0 4.0 0.00 0.00 0.00 50 1006.8
20260508140858 51 224 1.0 4.0 0.00 0.00 0.00 51 1006.8
20260508140352 50 248 2.0 7.0 0.00 0.00 0.00 50 1006.9
20260508140117 50 231 2.0 7.0 0.00 0.00 0.00 48 1006.9
20260508135340 49 213 1.0 4.0 0.00 0.00 0.00 50 1006.9
20260508134834 48 281 0.0 2.0 0.00 0.00 0.00 55 1007.0
20260508134328 47 242 0.0 1.0 0.00 0.00 0.00 58 1007.0
20260508134053 46 68 0.0 0.0 0.00 0.00 0.00 60 1007.2
20260508133317 46 67 0.0 0.0 0.00 0.00 0.00 60 1007.2
20260508132810 45 83 0.0 1.0 0.00 0.00 0.00 59 1007.2
20260508132306 45 87 1.0 2.0 0.00 0.00 0.00 58 1007.1
20260508131758 44 88 2.0 3.0 0.00 0.00 0.00 60 1007.1
20260508131252 44 56 2.0 3.0 0.00 0.00 0.00 68 1007.1
20260508130746 44 41 1.0 4.0 0.00 0.00 0.00 70 1007.3
20260508130240 43 354 2.0 4.0 0.00 0.00 0.00 69 1007.4
20260508125734 43 30 1.0 4.0 0.00 0.00 0.00 69 1007.4
20260508125229 44 112 0.0 1.0 0.00 0.00 0.00 65 1007.3
20260508124722 43 12 0.0 0.0 0.00 0.00 0.00 70 1007.3
20260508124216 42 106 0.0 0.0 0.00 0.00 0.00 72 1007.2
20260508123941 40 14 0.0 0.0 0.00 0.00 0.00 77 1007.3
20260508123204 40 14 0.0 1.0 0.00 0.00 0.00 77 1007.3
20260508122658 39 13 1.0 2.0 0.00 0.00 0.00 78 1007.3
20260508122152 39 31 1.0 3.0 0.00 0.00 0.00 77 1007.3
20260508121646 40 21 1.0 3.0 0.00 0.00 0.00 78 1007.3
20260508121140 40 27 0.0 1.0 0.00 0.00 0.00 76 1007.2
20260508120634 39 358 1.0 2.0 0.00 0.00 0.00 79 1007.2
20260508120359 38 358 1.0 2.0 0.00 0.00 0.00 79 1007.1
20260508115622 37 5 1.0 2.0 0.00 0.00 0.00 80 1007.1
20260508115348 37 351 0.0 1.0 0.00 0.00 0.00 81 1007.1
20260508114842 37 14 0.0 2.0 0.00 0.00 0.00 83 1007.1
20260508114104 36 6 0.0 2.0 0.00 0.00 0.00 83 1007.1
20260508113558 36 225 0.0 0.0 0.00 0.00 0.00 80 1007.1
20260508113052 35 225 0.0 0.0 0.00 0.00 0.00 79 1007.3
20260508112546 35 225 0.0 0.0 0.00 0.00 0.00 77 1007.3
20260508112311 34 225 0.0 0.0 0.00 0.00 0.00 76 1007.2
20260508111534 33 225 0.0 0.0 0.00 0.00 0.00 76 1007.2
20260508111028 33 225 0.0 0.0 0.00 0.00 0.00 76 1007.3
20260508110753 33 225 0.0 0.0 0.00 0.00 0.00 78 1007.3
20260508110016 32 225 0.0 0.0 0.00 0.00 0.00 80 1007.3
20260508105510 33 225 0.0 0.0 0.00 0.00 0.00 81 1007.3
20260508105004 33 225 0.0 2.0 0.00 0.00 0.00 81 1007.3
20260508104729 33 225 0.0 2.0 0.00 0.00 0.00 82 1007.3
20260508103952 33 233 0.0 2.0 0.00 0.00 0.00 81 1007.4
20260508103451 34 261 1.0 2.0 0.00 0.00 0.00 80 1007.4
20260508102948 34 233 0.0 1.0 0.00 0.00 0.00 80 1007.4
20260508102448 34 233 0.0 1.0 0.00 0.00 0.00 82 1007.5
20260508101949 35 236 0.0 1.0 0.00 0.00 0.00 81 1007.4
20260508101447 35 236 0.0 1.0 0.00 0.00 0.00 81 1007.5
20260508100945 35 236 0.0 1.0 0.00 0.00 0.00 81 1007.5
20260508100444 36 236 0.0 0.0 0.00 0.00 0.00 80 1007.5
20260508100217 37 235 0.0 0.0 0.00 0.00 0.00 79 1007.4
20260508095442 37 22 0.0 0.0 0.00 0.00 0.00 79 1007.4
20260508094941 37 22 0.0 0.0 0.00 0.00 0.00 79 1007.4
20260508094440 37 23 0.0 0.0 0.00 0.00 0.00 77 1007.4
20260508094215 38 23 0.0 0.0 0.00 0.00 0.00 77 1007.4
20260508093439 38 22 0.0 2.0 0.00 0.00 0.00 75 1007.3
20260508092940 38 22 1.0 2.0 0.00 0.00 0.00 73 1007.4
20260508092710 38 23 1.0 2.0 0.00 0.00 0.00 72 1007.4
20260508091937 38 19 2.0 2.0 0.00 0.00 0.00 71 1007.5
20260508091436 38 4 2.0 3.0 0.00 0.00 0.00 74 1007.5
20260508091206 38 354 2.0 3.0 0.00 0.00 0.00 74 1007.4
20260508090435 38 3 3.0 4.0 0.00 0.00 0.00 76 1007.4
20260508085935 38 4 2.0 4.0 0.00 0.00 0.00 77 1007.5
20260508085435 37 355 1.0 3.0 0.00 0.00 0.00 77 1007.5
20260508085205 37 358 0.0 1.0 0.00 0.00 0.00 83 1007.5
20260508084434 37 358 0.0 1.0 0.00 0.00 0.00 84 1007.5
20260508084205 37 358 0.0 1.0 0.00 0.00 0.00 84 1007.6
20260508083432 37 358 0.0 0.0 0.00 0.00 0.00 82 1007.6
20260508082931 37 358 0.0 0.0 0.00 0.00 0.00 81 1007.6
20260508082658 37 358 0.0 0.0 0.00 0.00 0.00 81 1007.7
20260508081927 37 358 0.0 0.0 0.00 0.00 0.00 80 1007.7
20260508081423 37 358 0.0 0.0 0.00 0.00 0.00 80 1007.7
20260508080923 37 358 0.0 0.0 0.00 0.00 0.00 79 1007.8
20260508080424 37 358 0.0 0.0 0.00 0.00 0.00 79 1007.7
20260508075923 37 358 0.0 0.0 0.00 0.00 0.00 79 1007.7
20260508075656 37 358 0.0 0.0 0.00 0.00 0.00 78 1007.7
20260508074921 38 358 0.0 0.0 0.00 0.00 0.00 78 1007.8
20260508074419 38 358 0.0 0.0 0.00 0.00 0.00 78 1007.8
20260508073919 38 358 0.0 0.0 0.00 0.00 0.00 77 1007.8
20260508073420 38 358 0.0 0.0 0.00 0.00 0.00 76 1007.8
20260508073309 39 352 0.0 1.0 0.00 0.00 0.00 76 1007.9
20260508073158 38 352 0.0 0.0 0.00 0.00 0.00 76 1007.9
20260508071919 39 353 0.0 1.0 0.00 0.00 0.00 77 1008.0
20260508071420 39 333 0.0 0.0 0.00 0.00 0.00 78 1007.9
20260508070921 38 333 0.0 0.0 0.00 0.00 0.00 79 1008.0
20260508070417 38 333 0.0 0.0 0.00 0.00 0.00 77 1008.0
20260508065916 38 333 0.0 0.0 0.00 0.00 0.00 78 1008.1
20260508065646 38 333 0.0 0.0 0.00 0.00 0.00 77 1008.1